Location: Forestville
(38.4740°N, 122.8890°W)
Time: 03:35:54
(UTC-07:00)

Amateur Radio Satellites - All Passes

Search period start: 01 April 2015 03:05
Search period end: 02 April 2015 03:05
Location: Forestville, 38.4740°N, 122.8890°W

Satellite Date Start Highest point End Downlink Frequencies (MHz)
Time Altitude Azimuth
SO-50 01 Apr 03:16:22 03:21:06 43° 53° (NE) 03:25:48 436.795
Gurwin Techsat 1B 01 Apr 03:24:21 03:29:29 48° 99° (E) 03:34:37 435.225
VERMONT LUNAR 01 Apr 03:25:48 03:27:22 13° 146° (SE) 03:29:02 437.305
STARS 01 Apr 03:29:58 03:34:21 87° 73° (ENE) 03:38:45 437.465
HORYU 2 01 Apr 03:37:02 03:38:45 12° 90° (E) 03:40:44 437.375
ISS 01 Apr 03:53:12 03:55:46 21° 26° (NNE) 03:58:21 145.825
ITAMSAT 1 01 Apr 03:57:38 04:02:47 66° 287° (WNW) 04:07:54 435.822/435.867
AIST 1 01 Apr 04:07:17 04:11:31 50° 94° (E) 04:15:48
Oscar 19 01 Apr 04:27:22 04:29:29 12° 298° (WNW) 04:31:18 437.125/150
PHONESAT 2.4 01 Apr 04:30:27 04:32:51 18° 147° (SSE) 04:35:18 2401.200-2431.200
AO-7 01 Apr 04:32:40 04:40:00 35° 97° (E) 04:47:28 29.400- 29.500
JAS-2 01 Apr 04:33:51 04:40:29 33° 92° (E) 04:46:41 435.910
O/OREOS (USA 219) 01 Apr 04:33:52 04:38:19 49° 295° (WNW) 04:42:48 437.305
AUBIESAT-1 01 Apr 04:37:23 04:40:03 17° 60° (ENE) 04:43:00 437.475
RS-15 01 Apr 04:50:25 05:02:00 81° 242° (WSW) 05:14:03 29.354- 29.394
GONETS M04 01 Apr 04:56:48 04:59:50 12° 57° (ENE) 05:03:35
SO-50 01 Apr 04:57:32 05:01:25 23° 249° (WSW) 05:05:08 436.795
MOZHAYETS 4 01 Apr 05:01:13 05:05:49 71° 75° (ENE) 05:10:27
VERMONT LUNAR 01 Apr 05:01:21 05:04:39 59° 159° (SSE) 05:07:57 437.305
M-CUBED/EXP-1 PRIME 01 Apr 05:03:14 05:06:57 35° 66° (ENE) 05:11:02 437.505
Gurwin Techsat 1B 01 Apr 05:05:13 05:09:09 21° 294° (WNW) 05:12:54 435.225
HORYU 2 01 Apr 05:11:24 05:15:51 57° 286° (WNW) 05:20:15 437.375
ISS 01 Apr 05:29:12 05:32:19 46° 224° (SW) 05:35:24 145.825
STRAND 1 01 Apr 05:47:12 05:47:46 10° 61° (ENE) 05:48:39 437.568
AIST 1 01 Apr 05:47:26 05:49:35 13° 291° (WNW) 05:51:31
PHONESAT 2.4 01 Apr 06:07:20 06:10:50 72° 163° (SSE) 06:14:22 2401.200-2431.200
AUBIESAT-1 01 Apr 06:10:37 06:14:30 43° 258° (WSW) 06:18:44 437.475
JAS-2 01 Apr 06:18:26 06:25:44 47° 291° (WNW) 06:32:21 435.910
AO-7 01 Apr 06:25:07 06:33:02 50° 294° (WNW) 06:40:52 29.400- 29.500
PRISM 01 Apr 06:27:41 06:31:28 33° 71° (ENE) 06:35:18 437.425
VERMONT LUNAR 01 Apr 06:39:03 06:42:22 60° 356° (N) 06:45:41 437.305
M-CUBED/EXP-1 PRIME 01 Apr 06:39:03 06:42:02 19° 264° (W) 06:45:05 437.505
CUTE-I 01 Apr 06:41:52 06:46:07 25° 94° (E) 06:50:30 437.470
Cubesat XI-IV 01 Apr 06:42:56 06:47:17 26° 94° (E) 06:51:43 437.490
MOZHAYETS 4 01 Apr 06:43:00 06:43:38 10° 273° (W) 06:43:56
GONETS M04 01 Apr 06:49:57 06:58:47 69° 80° (E) 07:07:36
CUBESAT XI-V 01 Apr 06:56:52 07:01:36 90° 359° (N) 07:06:19 437.345
DANDE 01 Apr 06:57:04 06:58:34 12° 72° (ENE) 07:00:31 436.750
RS-15 01 Apr 07:05:46 07:13:06 18° 258° (WSW) 07:19:40 29.354- 29.394
STRAND 1 01 Apr 07:21:08 07:26:17 86° 80° (E) 07:31:28 437.568
CUSAT 1 01 Apr 07:28:43 07:33:02 35° 78° (ENE) 07:38:39 437.405
PHONESAT 2.4 01 Apr 07:45:46 07:49:16 60° 358° (N) 07:52:46 2401.200-2431.200
PRISM 01 Apr 08:04:02 08:07:04 18° 267° (W) 08:09:58 437.425
VERMONT LUNAR 01 Apr 08:16:51 08:20:12 79° 11° (N) 08:23:33 437.305
CUTE-I 01 Apr 08:21:26 08:26:20 38° 290° (WNW) 08:31:10 437.470
Cubesat XI-IV 01 Apr 08:22:38 08:27:30 37° 290° (WNW) 08:32:18 437.490
BRITE-PL 01 Apr 08:26:27 08:28:13 13° 91° (E) 08:30:15 437.365/2234.400
DANDE 01 Apr 08:37:27 08:41:52 67° 262° (W) 08:47:53 436.750
HO-68 01 Apr 08:45:09 08:49:59 20° 90° (E) 08:55:08 435.675
GONETS M04 01 Apr 08:48:14 08:54:56 24° 277° (W) 09:01:14
CANX-2 01 Apr 08:53:05 08:55:22 14° 90° (E) 08:57:51 2200.000
GOMX 1 01 Apr 08:55:53 08:58:51 18° 93° (E) 09:02:05 467.674
CUTE 1.7 + AOD 2 01 Apr 09:05:58 09:08:56 18° 92° (E) 09:12:01 437.475
BEESAT 3 01 Apr 09:11:37 09:14:48 23° 113° (ESE) 09:18:07 437.485
CUSAT 1 01 Apr 09:11:42 09:15:48 26° 264° (W) 09:20:43 437.405
AAUSAT CUBESAT 2 01 Apr 09:18:37 09:20:52 14° 90° (E) 09:23:20 437.432
CINEMA 3 01 Apr 09:23:37 09:25:27 13° 90° (E) 09:27:36 145.822/145.860
PHONESAT 2.4 01 Apr 09:24:12 09:27:44 90° 214° (SW) 09:31:17 2401.200-2431.200
SEEDS 01 Apr 09:29:49 09:33:31 28° 95° (E) 09:37:15 437.485
COMPASS 1 01 Apr 09:47:08 09:51:03 36° 97° (E) 09:54:59 437.405
VERMONT LUNAR 01 Apr 09:54:45 09:57:44 29° 208° (SSW) 10:00:41 437.305
BRITE-PL 01 Apr 10:02:57 10:07:04 50° 285° (WNW) 10:11:25 437.365/2234.400
DOVE 4 01 Apr 10:05:54 10:10:20 74° 101° (ESE) 10:15:00 437.250
Oscar 11 01 Apr 10:07:17 10:10:50 25° 94° (E) 10:14:27 145.826/435.025
UNISAT 6 01 Apr 10:07:41 10:10:46 20° 68° (ENE) 10:14:02 437.425
AIST 2 01 Apr 10:08:56 10:12:32 28° 114° (ESE) 10:16:14 435.215
QB50P1 01 Apr 10:09:29 10:09:40 10° 65° (ENE) 10:10:07 145.935-145.965
DELFI C3 01 Apr 10:12:40 10:15:44 21° 93° (E) 10:18:53 145.870
BEESAT 2 01 Apr 10:15:19 10:19:26 80° 301° (WNW) 10:23:36 435.950
TIGRISAT 01 Apr 10:16:02 10:19:26 24° 69° (ENE) 10:22:56 435.000
QB50P2 01 Apr 10:23:09 10:25:34 15° 67° (ENE) 10:28:09 145.880/145.840
FUNcube-1 01 Apr 10:24:29 10:27:43 20° 93° (E) 10:31:08 145.935
CANX-2 01 Apr 10:27:28 10:31:36 44° 286° (WNW) 10:35:41 2200.000
HO-68 01 Apr 10:31:15 10:38:26 71° 288° (WNW) 10:45:34 435.675
GOMX 1 01 Apr 10:33:08 10:37:09 37° 287° (WNW) 10:41:21 467.674
BUGSAT 1 01 Apr 10:33:14 10:35:10 14° 67° (ENE) 10:37:18 437.445
UWE-3 01 Apr 10:36:49 10:40:55 35° 97° (E) 10:45:08 435.000/436.395/437.385
ZACube-1 01 Apr 10:38:11 10:42:03 29° 96° (E) 10:46:01 437.345
CUTE 1.7 + AOD 2 01 Apr 10:41:03 10:45:00 35° 288° (WNW) 10:48:53 437.475
ANTELSAT 01 Apr 10:47:12 10:51:22 56° 74° (ENE) 10:55:38 437.575/2403.000
CUBEBUG 2 01 Apr 10:48:32 10:52:59 59° 100° (E) 10:57:33 437.445
BEESAT 3 01 Apr 10:49:05 10:52:45 30° 309° (NW) 10:56:24 437.485
VELOX 1 01 Apr 10:49:12 10:49:55 10° 89° (E) 10:50:55 145.980
POPSAT HIP 1 01 Apr 10:49:48 10:53:26 29° 71° (ENE) 10:57:08 437.405
AAUSAT CUBESAT 2 01 Apr 10:52:45 10:56:47 42° 287° (WNW) 11:00:46 437.432
AISAT 01 Apr 10:54:14 10:56:10 13° 90° (E) 10:58:20 437.250
CINEMA 3 01 Apr 10:58:37 11:03:02 57° 285° (WNW) 11:07:38 145.822/145.860
NANOSAT C BR1 01 Apr 10:58:44 11:02:35 37° 73° (ENE) 11:06:30 145.865
PHONESAT 2.4 01 Apr 11:02:54 11:05:50 24° 210° (SSW) 11:08:45 2401.200-2431.200
HUMSAT D 01 Apr 11:03:04 11:06:40 26° 95° (E) 11:10:20 437.325/437.525
SEEDS 01 Apr 11:05:49 11:09:13 23° 290° (WNW) 11:12:31 437.485
POLYITAN 1 01 Apr 11:05:52 11:09:53 46° 74° (ENE) 11:13:56 437.675
50 SAT 01 Apr 11:11:30 11:14:30 20° 94° (E) 11:17:36 437.505
UKube-1 01 Apr 11:14:29 11:18:41 48° 99° (E) 11:22:52 .
COMPASS 1 01 Apr 11:23:34 11:26:31 18° 292° (WNW) 11:29:18 437.405
DX 1 01 Apr 11:29:04 11:33:25 78° 102° (ESE) 11:37:45 434.975-435.025
ESTCUBE 1 01 Apr 11:34:03 11:37:09 19° 92° (E) 11:40:23 437.505/2401.250
DUCHIFAT 1 01 Apr 11:40:44 11:44:56 70° 259° (WSW) 11:49:07 145.980
QB50P1 01 Apr 11:40:53 11:45:04 68° 259° (WSW) 11:49:16 145.935-145.965
Oscar 11 01 Apr 11:43:17 11:47:00 27° 290° (WNW) 11:50:37 145.826/435.025
UNISAT 6 01 Apr 11:43:34 11:47:24 32° 264° (W) 11:51:17 437.425
DOVE 4 01 Apr 11:46:58 11:47:41 10° 294° (WNW) 11:48:09 437.250
DELFI C3 01 Apr 11:47:23 11:50:56 28° 289° (WNW) 11:54:24 145.870
AIST 2 01 Apr 11:47:24 11:51:06 27° 310° (NW) 11:54:48 435.215
TIGRISAT 01 Apr 11:52:30 11:56:08 26° 265° (W) 11:59:44 435.000
QB50P2 01 Apr 11:57:10 12:01:10 42° 262° (W) 12:05:11 145.880/145.840
FUNcube-1 01 Apr 12:00:09 12:04:09 34° 288° (WNW) 12:08:12 145.935
BUGSAT 1 01 Apr 12:06:19 12:10:20 47° 261° (W) 12:14:18 437.445
CUBEBUG 1 01 Apr 12:12:49 12:16:58 44° 99° (E) 12:21:06 437.445
UWE-3 01 Apr 12:13:55 12:17:16 21° 291° (WNW) 12:20:34 435.000/436.395/437.385
ZACube-1 01 Apr 12:14:42 12:18:19 24° 290° (WNW) 12:21:53 437.345
HO-68 01 Apr 12:21:51 12:25:04 13° 305° (NW) 12:27:51 435.675
VELOX 1 01 Apr 12:22:38 12:27:00 63° 285° (WNW) 12:31:20 145.980
Oscar 19 01 Apr 12:25:30 12:27:18 12° 62° (ENE) 12:29:22 437.125/150
POPSAT HIP 1 01 Apr 12:26:08 12:29:23 21° 267° (W) 12:32:31 437.405
CUBEBUG 2 01 Apr 12:27:05 12:29:17 13° 293° (WNW) 12:31:17 437.445
ANTELSAT 01 Apr 12:27:17 12:28:39 11° 272° (W) 12:29:45 437.575/2403.000
AISAT 01 Apr 12:28:52 12:33:10 51° 286° (WNW) 12:37:26 437.250
NANOSAT C BR1 01 Apr 12:35:53 12:38:38 16° 268° (W) 12:41:14 145.865
HUMSAT D 01 Apr 12:38:51 12:42:21 24° 290° (WNW) 12:45:48 437.325/437.525
POLYITAN 1 01 Apr 12:44:00 12:46:07 13° 270° (W) 12:48:02 437.675
50 SAT 01 Apr 12:45:56 12:49:26 28° 289° (WNW) 12:52:53 437.505
UKube-1 01 Apr 12:52:03 12:54:28 14° 294° (WNW) 12:56:43 .
O/OREOS (USA 219) 01 Apr 13:06:37 13:10:13 23° 58° (ENE) 13:13:52 437.305
ESTCUBE 1 01 Apr 13:10:01 13:14:12 37° 289° (WNW) 13:18:19 437.505/2401.250
TISAT 1 01 Apr 13:21:33 13:25:41 55° 100° (E) 13:29:48 437.305
JUGNU 01 Apr 13:22:52 13:23:43 10° 172° (S) 13:24:36 437.505
YUBILEINY 01 Apr 13:34:34 13:42:58 54° 91° (E) 13:51:30 435.215
ITAMSAT 1 01 Apr 13:36:37 13:40:11 20° 65° (ENE) 13:43:54 435.822/435.867
SPROUT 01 Apr 13:44:32 13:48:47 64° 285° (WNW) 13:53:01 437.525
PCSat 01 Apr 13:47:30 13:52:08 31° 110° (ESE) 13:56:53 145.827
CUBEBUG 1 01 Apr 13:50:22 13:53:01 16° 293° (WNW) 13:55:30 437.445
Oscar 19 01 Apr 14:00:55 14:06:02 81° 256° (WSW) 14:11:12 437.125/150
SWISSCUBE 01 Apr 14:06:40 14:10:43 28° 95° (E) 14:14:50 437.505
BEESAT 01 Apr 14:09:02 14:13:04 27° 95° (E) 14:17:08 436.000
AIST 1 01 Apr 14:18:32 14:19:31 11° 68° (ENE) 14:20:46
HORYU 2 01 Apr 14:35:52 14:36:23 10° 63° (ENE) 14:37:11 437.375
Gurwin Techsat 1B 01 Apr 14:43:54 14:49:09 67° 74° (ENE) 14:54:27 435.225
O/OREOS (USA 219) 01 Apr 14:45:40 14:49:43 32° 256° (WSW) 14:53:40 437.305
JAS-2 01 Apr 14:46:29 14:49:50 14° 56° (NE) 14:53:44 435.910
ITUPSAT 1 01 Apr 14:57:36 15:02:26 87° 104° (ESE) 15:07:12 437.325
KKS-1 01 Apr 14:58:52 15:01:29 16° 91° (E) 15:04:17 437.445
TISAT 1 01 Apr 14:59:19 15:01:04 12° 294° (WNW) 15:02:37 437.305
JUGNU 01 Apr 15:09:37 15:11:51 12° 182° (S) 15:14:05 437.505
ITAMSAT 1 01 Apr 15:14:17 15:19:21 50° 260° (W) 15:24:25 435.822/435.867
STARS 01 Apr 15:22:17 15:25:14 18° 92° (E) 15:28:20 437.465
AO-7 01 Apr 15:30:02 15:37:38 43° 64° (ENE) 15:45:21 29.400- 29.500
PCSat 01 Apr 15:30:31 15:35:29 35° 306° (NW) 15:40:27 145.827
YUBILEINY 01 Apr 15:32:28 15:40:14 32° 290° (WNW) 15:47:49 435.215
SWISSCUBE 01 Apr 15:44:27 15:48:34 28° 291° (WNW) 15:52:35 437.505
BEESAT 01 Apr 15:46:44 15:50:53 29° 291° (WNW) 15:54:56 436.000
AIST 1 01 Apr 15:53:28 15:57:42 56° 265° (W) 16:01:51
HORYU 2 01 Apr 16:08:04 16:12:29 75° 258° (WSW) 16:16:57 437.375
SRMSAT 01 Apr 16:15:34 16:17:50 12° 179° (S) 16:20:06 437.500
JAS-2 01 Apr 16:26:38 16:33:35 73° 74° (ENE) 16:41:17 435.910
Gurwin Techsat 1B 01 Apr 16:26:53 16:29:43 14° 271° (W) 16:32:15 435.225
KKS-1 01 Apr 16:34:09 16:38:24 43° 287° (WNW) 16:42:36 437.445
STARS 01 Apr 16:57:48 17:01:53 37° 288° (WNW) 17:05:56 437.465
MOZHAYETS 4 01 Apr 16:58:54 17:02:07 19° 92° (E) 17:05:28
RS-15 01 Apr 17:06:15 17:11:31 16° 101° (E) 17:17:42 29.354- 29.394
AO-7 01 Apr 17:22:44 17:30:29 41° 262° (W) 17:38:09 29.400- 29.500
SO-50 01 Apr 17:30:55 17:33:58 18° 110° (ESE) 17:37:14 436.795
BEESAT 3 01 Apr 17:32:49 17:34:21 12° 41° (NE) 17:36:02 437.485
AUBIESAT-1 01 Apr 17:54:06 17:57:18 18° 95° (E) 18:00:34 437.475
GONETS M04 01 Apr 17:57:59 18:01:41 14° 79° (ENE) 18:06:03
CUTE-I 01 Apr 18:02:09 18:06:59 36° 70° (ENE) 18:11:53 437.470
Cubesat XI-IV 01 Apr 18:03:23 18:08:17 38° 70° (ENE) 18:13:14 437.490
JAS-2 01 Apr 18:14:18 18:19:31 21° 274° (W) 18:24:41 435.910
M-CUBED/EXP-1 PRIME 01 Apr 18:20:47 18:25:19 39° 101° (ESE) 18:29:42 437.505
AIST 2 01 Apr 18:32:39 18:35:03 15° 43° (NE) 18:37:34 435.215
MOZHAYETS 4 01 Apr 18:35:13 18:39:33 39° 288° (WNW) 18:43:49
BEESAT 2 01 Apr 18:36:21 18:40:15 38° 53° (NE) 18:44:05 435.950
CUBESAT XI-V 01 Apr 18:55:49 18:59:33 25° 94° (E) 19:03:22 437.345
BEESAT 3 01 Apr 19:08:53 19:13:00 78° 241° (WSW) 19:17:02 437.485
SO-50 01 Apr 19:09:41 19:14:09 47° 306° (NW) 19:18:48 436.795
RS-15 01 Apr 19:11:30 19:22:21 80° 118° (ESE) 19:33:26 29.354- 29.394
HO-68 01 Apr 19:14:46 19:17:57 14° 55° (NE) 19:21:32 435.675
AUBIESAT-1 01 Apr 19:27:45 19:32:23 46° 292° (WNW) 19:36:48 437.475
STRAND 1 01 Apr 19:33:35 19:38:08 32° 96° (E) 19:42:41 437.568
BRITE-PL 01 Apr 19:36:40 19:38:49 14° 68° (ENE) 19:41:08 437.365/2234.400
CUTE-I 01 Apr 19:42:38 19:47:09 27° 266° (W) 19:51:35 437.470
Cubesat XI-IV 01 Apr 19:44:02 19:48:30 26° 266° (W) 19:52:51 437.490
PRISM 01 Apr 19:46:39 19:50:49 69° 101° (ESE) 19:54:55 437.425
GONETS M04 01 Apr 19:48:39 19:57:20 83° 95° (E) 20:06:08
M-CUBED/EXP-1 PRIME 01 Apr 19:56:06 19:59:56 23° 297° (WNW) 20:03:34 437.505
CUTE 1.7 + AOD 2 01 Apr 19:59:17 20:00:43 12° 66° (ENE) 20:02:23 437.475
GOMX 1 01 Apr 20:03:47 20:06:28 17° 69° (ENE) 20:09:14 467.674
AIST 2 01 Apr 20:09:54 20:14:07 61° 242° (WSW) 20:18:12 435.215
BEESAT 2 01 Apr 20:15:18 20:18:07 17° 249° (WSW) 20:20:47 435.950
SEEDS 01 Apr 20:21:30 20:24:14 18° 68° (ENE) 20:27:08 437.485
CUBESAT XI-V 01 Apr 20:33:00 20:37:02 29° 289° (WNW) 20:40:57 437.345
ISS 01 Apr 20:33:22 20:34:01 11° 129° (SE) 20:34:48 145.825
COMPASS 1 01 Apr 20:37:43 20:40:52 22° 69° (ENE) 20:44:08 437.405
CUSAT 1 01 Apr 20:39:17 20:41:36 25° 96° (E) 20:43:51 437.405
HO-68 01 Apr 20:57:31 21:04:39 76° 72° (ENE) 21:11:51 435.675
DELFI C3 01 Apr 21:00:58 21:02:16 12° 66° (ENE) 21:03:48 145.870
Oscar 11 01 Apr 21:01:35 21:04:17 17° 68° (ENE) 21:07:10 145.826/435.025
DOVE 4 01 Apr 21:10:37 21:14:51 61° 76° (ENE) 21:18:58 437.250
BRITE-PL 01 Apr 21:12:34 21:17:06 51° 260° (W) 21:21:21 437.365/2234.400
STRAND 1 01 Apr 21:12:55 21:17:15 28° 292° (WNW) 21:21:28 437.568
CANX-2 01 Apr 21:18:35 21:22:50 76° 259° (W) 21:27:06 2200.000
FUNcube-1 01 Apr 21:20:40 21:22:28 13° 66° (ENE) 21:24:30 145.935
RS-15 01 Apr 21:26:30 21:36:05 32° 323° (NW) 21:45:41 29.354- 29.394
CUTE 1.7 + AOD 2 01 Apr 21:32:02 21:36:12 58° 260° (W) 21:40:26 437.475
UWE-3 01 Apr 21:33:31 21:36:45 23° 70° (ENE) 21:40:05 435.000/436.395/437.385
ZACube-1 01 Apr 21:33:55 21:36:46 19° 69° (ENE) 21:39:45 437.345
GOMX 1 01 Apr 21:40:16 21:44:25 38° 262° (W) 21:48:23 467.674
AAUSAT CUBESAT 2 01 Apr 21:41:47 21:45:57 78° 258° (WSW) 21:50:11 437.432
CUBEBUG 2 01 Apr 21:45:57 21:49:47 38° 73° (ENE) 21:53:41 437.445
GONETS M04 01 Apr 21:49:18 21:55:28 20° 297° (WNW) 22:01:12
DANDE 01 Apr 21:52:16 21:54:39 23° 283° (WNW) 21:56:51 436.750
AISAT 01 Apr 21:52:20 21:53:23 11° 64° (ENE) 21:54:40 437.250
HUMSAT D 01 Apr 21:54:51 21:57:16 16° 68° (ENE) 21:59:51 437.325/437.525
SEEDS 01 Apr 21:55:53 21:59:48 36° 263° (W) 22:03:44 437.485
50 SAT 01 Apr 21:58:50 21:59:19 10° 66° (ENE) 22:00:02 437.505
CINEMA 3 01 Apr 21:59:17 22:03:27 73° 258° (WSW) 22:07:37 145.822/145.860
ISS 01 Apr 22:06:48 22:10:02 70° 321° (NW) 22:13:18 145.825
UKube-1 01 Apr 22:08:07 22:12:02 35° 71° (ENE) 22:16:00 .
COMPASS 1 01 Apr 22:12:45 22:16:26 29° 265° (W) 22:20:05 437.405
DX 1 01 Apr 22:23:08 22:27:23 55° 74° (ENE) 22:31:41 434.975-435.025
DELFI C3 01 Apr 22:33:02 22:37:01 54° 260° (W) 22:41:04 145.870
ESTCUBE 1 01 Apr 22:33:07 22:35:45 16° 66° (ENE) 22:38:35 437.505/2401.250
Oscar 11 01 Apr 22:36:08 22:40:12 40° 262° (W) 22:44:17 145.826/435.025
PCSat 01 Apr 22:36:48 22:40:47 21° 47° (NE) 22:44:52 145.827
ANTELSAT 01 Apr 22:41:55 22:44:20 14° 90° (E) 22:47:00 437.575/2403.000
HO-68 01 Apr 22:48:20 22:53:11 18° 270° (W) 22:57:40 435.675
FUNcube-1 01 Apr 22:54:26 22:58:27 49° 261° (W) 23:02:30 145.935
CUBEBUG 1 01 Apr 23:07:46 23:11:38 31° 71° (ENE) 23:15:32 437.445
ZACube-1 01 Apr 23:09:13 23:12:57 32° 264° (W) 23:16:42 437.345
UWE-3 01 Apr 23:09:44 23:13:14 26° 265° (W) 23:16:42 435.000/436.395/437.385
VELOX 1 01 Apr 23:18:36 23:23:03 85° 257° (WSW) 23:27:31 145.980
CUBEBUG 2 01 Apr 23:24:16 23:26:45 15° 269° (W) 23:29:03 437.445
AISAT 01 Apr 23:25:03 23:29:29 70° 259° (WSW) 23:33:54 437.250
DUCHIFAT 1 01 Apr 23:27:50 23:30:57 20° 94° (E) 23:34:10 145.980
QB50P1 01 Apr 23:28:14 23:31:26 21° 94° (E) 23:34:44 145.935-145.965
HUMSAT D 01 Apr 23:28:55 23:32:46 38° 263° (W) 23:36:37 437.325/437.525
50 SAT 01 Apr 23:29:57 23:33:48 56° 261° (W) 23:37:40 437.505
UNISAT 6 01 Apr 23:36:07 23:40:40 56° 100° (E) 23:45:18 437.425
QB50P2 01 Apr 23:44:00 23:47:50 33° 97° (E) 23:51:42 145.880/145.840
TIGRISAT 01 Apr 23:44:28 23:49:04 68° 100° (E) 23:53:44 435.000
ISS 01 Apr 23:45:05 23:46:56 14° 340° (NNW) 23:48:45 145.825
UKube-1 01 Apr 23:45:11 23:48:19 19° 267° (W) 23:51:19 .
RS-15 01 Apr 23:46:59 23:53:31 17° 357° (N) 00:00:09 29.354- 29.394
YUBILEINY 01 Apr 23:47:18 23:53:56 24° 65° (ENE) 00:00:52 435.215
BUGSAT 1 01 Apr 23:50:25 23:53:45 25° 95° (E) 23:57:09 437.445
DX 1 02 Apr 00:02:17 00:04:04 12° 270° (W) 00:05:35 434.975-435.025
ESTCUBE 1 02 Apr 00:07:52 00:12:17 48° 261° (W) 00:16:42 437.505/2401.250
POPSAT HIP 1 02 Apr 00:11:35 00:15:48 69° 101° (E) 00:20:02 437.405
TISAT 1 02 Apr 00:12:35 00:16:22 34° 72° (ENE) 00:20:12 437.305
ANTELSAT 02 Apr 00:16:58 00:21:29 52° 286° (WNW) 00:26:02 437.575/2403.000
PCSat 02 Apr 00:19:19 00:24:40 59° 246° (WSW) 00:29:57 145.827
NANOSAT C BR1 02 Apr 00:20:29 00:24:44 88° 102° (ESE) 00:28:59 145.865
POLYITAN 1 02 Apr 00:28:22 00:32:37 73° 285° (WNW) 00:36:53 437.675
SPROUT 02 Apr 00:37:01 00:41:18 80° 77° (ENE) 00:45:35 437.525
CUBEBUG 1 02 Apr 00:44:39 00:48:04 21° 266° (W) 00:51:22 437.445
DUCHIFAT 1 02 Apr 01:03:08 01:06:50 30° 289° (WNW) 01:10:31 145.980
QB50P1 02 Apr 01:03:39 01:07:21 29° 289° (WNW) 01:11:00 145.935-145.965
SWISSCUBE 02 Apr 01:12:00 01:16:02 28° 69° (ENE) 01:20:10 437.505
BEESAT 02 Apr 01:14:18 01:18:18 27° 69° (ENE) 01:22:22 436.000
UNISAT 6 02 Apr 01:14:28 01:17:04 15° 294° (WNW) 01:19:30 437.425
QB50P2 02 Apr 01:20:26 01:23:33 20° 291° (WNW) 01:26:34 145.880/145.840
TIGRISAT 02 Apr 01:23:23 01:25:21 12° 295° (WNW) 01:27:05 435.000
BUGSAT 1 02 Apr 01:25:59 01:29:11 22° 290° (WNW) 01:32:16 437.445
YUBILEINY 02 Apr 01:42:56 01:51:42 70° 266° (W) 02:00:21 435.215
TISAT 1 02 Apr 01:49:21 01:52:18 18° 267° (W) 01:55:08 437.305
POPSAT HIP 1 02 Apr 01:50:51 01:51:12 10° 295° (WNW) 01:51:18 437.405
KKS-1 02 Apr 01:56:51 01:58:47 13° 65° (ENE) 02:00:54 437.445
RS-15 02 Apr 02:02:13 02:11:24 28° 32° (NNE) 02:21:12 29.354- 29.394
ITUPSAT 1 02 Apr 02:02:49 02:07:38 85° 75° (ENE) 02:12:29 437.325
SO-50 02 Apr 02:03:08 02:06:03 16° 41° (NE) 02:09:08 436.795
Oscar 19 02 Apr 02:14:07 02:18:58 40° 98° (E) 02:23:51 437.125/150
STARS 02 Apr 02:18:59 02:21:12 14° 66° (ENE) 02:23:37 437.465
SWISSCUBE 02 Apr 02:49:42 02:53:52 28° 265° (W) 02:57:59 437.505
BEESAT 02 Apr 02:51:53 02:56:05 29° 264° (W) 03:00:14 436.000
ISS 02 Apr 03:00:06 03:02:01 15° 20° (NNE) 03:03:59 145.825
